[[{"header":{"parameterUnit":"m.s-1","parameterCategory":2,"la1":30.2991,"la2":30.254,"lo1":-89.0895,"lo2":-89.0444,"dy":0.0017,"dx":0.0017,"nx":28,"ny":28,"refTime":"2024-06-24T09:00:00:Z","depth":"0","parameterNumber":2,"parameterNumberName":"U-component_of_CURRENTS"},"data":[0,0,0,0,0,0,0,0,0,0,0,0,0,0,0,0,0,0,0,0,0,0,0,0,0,0,0,0,0,0,0,0,0,0,0,0,0,0,0,0,0,0,0,0,0,0,0,0,0,0,0,0,0,0,0,0,0,0,-0.2453,-0.2454,0,-0.2551,-0.2552,-0.2553,-0.2493,-0.2491,-0.2488,-0.2485,-0.2446,-0.2447,-0.2449,0,0,0,0,0,0,0,0,0,0,0,0,0,-0.2269,-0.2272,-0.2452,-0.2454,-0.2455,-0.2551,-0.2552,-0.2554,-0.2494,-0.249,-0.2487,-0.2484,-0.2445,-0.2447,-0.2449,0,0,0,0,0,0,0,0,0,0,0,0,0,-0.2354,-0.2273,-0.2452,-0.2438,-0.2438,-0.2551,-0.2552,-0.2554,-0.2494,-0.249,-0.2486,-0.2483,-0.2445,-0.2447,-0.2449,-0.2543,0,0,-0.2456,-0.2457,0,0,0,0,0,0,0,0,-0.2349,-0.2361,-0.2439,-0.244,-0.244,-0.2507,-0.2473,-0.2544,-0.2495,-0.2471,-0.2485,-0.2481,-0.2458,-0.2459,-0.2486,-0.2541,-0.254,-0.2456,-0.2457,-0.2458,-0.2459,0,0,0,0,0,0,0,-0.2343,-0.2357,-0.249,-0.2441,-0.2441,-0.2447,-0.2454,-0.2487,-0.2482,-0.2473,-0.2469,-0.2485,-0.2456,-0.2484,-0.2484,-0.2539,-0.2456,-0.2458,-0.2459,-0.246,-0.2637,-0.264,0,0,0,0,0,0,-0.2338,-0.2352,-0.2487,-0.2493,-0.2386,-0.2453,-0.2461,-0.2488,-0.2484,-0.2482,-0.2488,-0.2482,-0.2482,-0.2481,-0.2482,-0.2561,-0.2458,-0.246,-0.2461,-0.2634,-0.2638,-0.2642,0,0,0,0,0,0,-0.2333,-0.2349,-0.2483,-0.2424,-0.2442,-0.246,-0.2492,-0.2492,-0.2506,-0.2498,-0.2491,-0.2498,-0.2479,-0.2479,-0.2522,-0.2559,-0.2461,-0.2463,-0.263,-0.2635,-0.264,-0.2738,0,0,0,0,0,0,-0.2328,-0.2348,-0.2355,-0.2425,-0.2445,-0.2546,-0.2496,-0.2497,-0.2523,-0.2515,-0.2506,-0.2498,-0.2476,-0.2519,-0.2524,-0.256,-0.2465,-0.2625,-0.2632,-0.2638,-0.2731,-0.2746,-0.2759,0,0,0,0,0,-0.2321,-0.2352,-0.2355,-0.2371,-0.2458,-0.2548,-0.2559,-0.2556,-0.2527,-0.255,-0.2551,-0.2498,-0.2562,-0.2525,-0.253,-0.2567,-0.2622,-0.263,-0.2638,-0.2724,-0.2743,-0.2759,0,0,0,0,0,0,-0.2258,-0.2352,-0.2355,-0.2406,-0.2469,-0.2538,-0.2557,-0.2569,-0.2594,-0.2574,-0.2553,-0.2549,-0.2595,-0.2586,-0.2546,-0.264,-0.258,-0.2589,-0.2645,-0.2662,-0.2676,-0.2637,-0.2467,0,0,0,0,0,-0.2257,-0.2307,-0.2392,-0.2427,-0.2464,-0.2515,-0.2546,-0.2558,-0.2597,-0.2602,-0.2601,-0.2609,-0.2642,-0.2651,-0.267,-0.2738,-0.2662,-0.2764,-0.2778,-0.279,-0.2765,-0.272,-0.2726,-0.2667,-0.2667,-0.2666,0,0,-0.2231,-0.2296,-0.2314,-0.2418,-0.2462,-0.2534,-0.2522,-0.2582,-0.2633,-0.2597,-0.2648,-0.2657,-0.2672,-0.2734,-0.2754,-0.2724,-0.2769,-0.28,-0.2809,-0.2777,-0.2728,-0.2733,-0.2737,-0.2672,-0.2671,-0.267,0,0,-0.2228,-0.2279,-0.2323,-0.2394,-0.2483,-0.2538,-0.2559,-0.264,-0.2663,-0.2737,-0.2721,-0.275,-0.2805,-0.2819,-0.2836,-0.2948,-0.2843,-0.2966,-0.3007,-0.2966,-0.2968,-0.297,-0.2867,-0.2859,-0.2975,-0.2976,-0.2976,0,-0.2188,-0.2264,-0.2345,-0.2419,-0.247,-0.2543,-0.2602,-0.2671,-0.2748,-0.277,-0.2752,-0.2827,-0.2839,-0.2909,-0.2953,-0.2973,-0.2911,-0.2937,-0.2978,-0.2978,-0.2978,-0.2872,-0.2862,-0.2981,-0.2981,-0.298,-0.298,0,-0.2232,-0.2289,-0.2329,-0.2448,-0.2521,-0.2588,-0.27,-0.2764,-0.2799,-0.284,-0.2903,-0.2934,-0.2954,-0.2997,-0.3013,-0.3048,-0.299,-0.2994,-0.2919,-0.2988,-0.2875,-0.2861,-0.2989,-0.2987,-0.2986,-0.2984,0,0,-0.2143,-0.232,-0.2323,-0.2373,-0.2539,-0.2596,-0.272,-0.2829,-0.2866,-0.294,-0.2964,-0.3063,-0.3043,-0.3061,-0.3086,-0.3081,-0.3041,-0.3048,-0.3043,-0.2917,-0.2898,-0.2806,-0.2782,-0.3053,-0.3052,-0.3051,-0.2812,0,-0.2139,-0.2242,-0.2354,-0.2447,-0.2512,-0.2642,-0.2741,-0.2847,-0.292,-0.2967,-0.3017,-0.3044,-0.3084,-0.3082,-0.3092,-0.3048,-0.3014,-0.3101,-0.2873,-0.2864,-0.2752,-0.2767,-0.2636,-0.2409,-0.2798,-0.2796,-0.2794,0,-0.2138,-0.2212,-0.2289,-0.244,-0.2478,-0.2547,-0.2684,-0.2783,-0.2903,-0.2947,-0.2995,-0.3022,-0.3046,-0.3056,-0.2984,-0.3036,-0.2968,-0.2931,-0.292,-0.2782,-0.2749,-0.241,-0.2369,-0.2379,-0.2772,-0.2774,-0.2775,0,-0.2012,-0.2164,-0.2209,-0.2264,-0.2451,-0.2499,-0.2593,-0.2741,-0.2801,-0.2902,-0.2905,-0.2964,-0.2918,-0.2904,-0.285,-0.2906,-0.2721,-0.2775,-0.2618,-0.2607,-0.2419,-0.2395,-0.233,-0.2692,-0.2692,-0.2693,-0.2694,0,-0.1972,-0.2008,-0.2138,-0.2164,-0.2215,-0.2382,-0.2438,-0.2557,-0.2669,-0.2698,-0.2841,-0.2818,-0.2875,-0.2806,-0.2794,-0.2632,-0.2655,-0.2591,-0.2543,-0.2452,-0.2435,-0.2374,-0.2434,-0.2684,-0.2686,-0.2688,-0.2689,0,-0.1838,-0.1931,-0.1981,-0.212,-0.2157,-0.2178,-0.2323,-0.2358,-0.2494,-0.2524,-0.2543,-0.2636,-0.2547,-0.2572,-0.2484,-0.2486,-0.2349,-0.2331,-0.2195,-0.2138,-0.205,-0.212,-0.1975,-0.1922,-0.2122,-0.2119,-0.2116,0,-0.1794,-0.1796,-0.1881,-0.1882,-0.1937,-0.1999,-0.2041,-0.2227,-0.2273,-0.2391,-0.2368,-0.233,-0.2282,-0.2127,-0.2098,-0.2008,-0.2111,-0.1883,-0.1997,-0.1996,-0.204,-0.2121,-0.2095,-0.1768,-0.1762,-0.1757,-0.1754,0,-0.1692,-0.1693,-0.172,-0.1702,-0.1721,-0.176,-0.1837,-0.1858,-0.2057,-0.2091,-0.2083,-0.2052,-0.192,-0.1771,-0.1694,-0.1672,-0.1862,-0.1785,-0.1821,-0.1779,-0.1821,-0.1761,-0.1949,-0.1712,-0.1717,-0.172,-0.1722,-0.1724,-0.159,-0.1554,-0.1549,-0.1533,-0.1534,-0.1521,-0.1499,-0.1584,-0.1623,-0.1649,-0.1744,-0.1616,-0.158,-0.1436,-0.1412,-0.1365,-0.1487,-0.1403,-0.1482,-0.1561,-0.1542,-0.1621,-0.1335,-0.1337,-0.1339,-0.134,-0.1341,0,-0.149,-0.1445,-0.1394,-0.1364,-0.1287,-0.1348,-0.1362,-0.1315,-0.1286,-0.129,-0.1271,-0.1154,-0.1092,-0.1106,-0.1116,-0.1107,-0.1137,-0.114,-0.1237,-0.1223,-0.1281,-0.1302,-0.0952,-0.0952,-0.0952,-0.0952,-0.0952,-0.0952,-0.1436,-0.135,-0.1316,-0.1152,-0.1105,-0.0986,-0.0957,-0.0884,-0.0847,-0.0702,-0.0589,-0.055,-0.0679,-0.1044,-0.1122,-0.1082,-0.1122,-0.1056,-0.1147,-0.1228,-0.126,-0.1292,-0.1325,-0.0986,-0.0987,-0.1011,-0.1011,-0.1012]},{"header":{"parameterUnit":"m.s-1","parameterCategory":2,"la1":30.2991,"la2":30.254,"lo1":-89.0895,"lo2":-89.0444,"dy":0.0017,"dx":0.0017,"nx":28,"ny":28,"refTime":"2024-06-24T09:00:00:Z","depth":"0","parameterNumber":3,"parameterNumberName":"V-component_of_CURRENTS"},"data":[0,0,0,0,0,0,0,0,0,0,0,0,0,0,0,0,0,0,0,0,0,0,0,0,0,0,0,0,0,0,0,0,0,0,0,0,0,0,0,0,0,0,0,0,0,0,0,0,0,0,0,0,0,0,0,0,0,0,-0.1294,-0.1293,0,-0.1171,-0.1169,-0.1168,-0.1037,-0.1035,-0.1033,-0.1032,-0.0771,-0.0766,-0.0761,0,0,0,0,0,0,0,0,0,0,0,0,0,-0.1289,-0.129,-0.1295,-0.1293,-0.1292,-0.1171,-0.1169,-0.1167,-0.1037,-0.1035,-0.1033,-0.1031,-0.0773,-0.0767,-0.076,0,0,0,0,0,0,0,0,0,0,0,0,0,-0.1239,-0.1291,-0.1295,-0.1214,-0.1205,-0.1171,-0.1169,-0.1167,-0.1037,-0.1035,-0.1032,-0.103,-0.0775,-0.0767,-0.0759,-0.0759,0,0,-0.0735,-0.0731,0,0,0,0,0,0,0,0,-0.1242,-0.1239,-0.1227,-0.1219,-0.121,-0.1118,-0.1071,-0.1024,-0.1038,-0.1099,-0.1032,-0.1029,-0.0878,-0.0861,-0.0842,-0.0747,-0.0735,-0.0734,-0.0729,-0.0726,-0.0723,0,0,0,0,0,0,0,-0.1246,-0.1243,-0.1243,-0.1226,-0.1215,-0.1139,-0.1131,-0.1062,-0.1,-0.1093,-0.1084,-0.1075,-0.0872,-0.0851,-0.0835,-0.0732,-0.0734,-0.0727,-0.0722,-0.0719,-0.0509,-0.0508,0,0,0,0,0,0,-0.1276,-0.1248,-0.1247,-0.124,-0.1223,-0.1142,-0.1132,-0.1149,-0.1003,-0.098,-0.1077,-0.1069,-0.0866,-0.0845,-0.0825,-0.0744,-0.0726,-0.0718,-0.0713,-0.051,-0.0509,-0.0508,0,0,0,0,0,0,-0.1277,-0.1278,-0.1252,-0.124,-0.1232,-0.1146,-0.1165,-0.1148,-0.1105,-0.0992,-0.0966,-0.105,-0.0863,-0.0837,-0.0744,-0.0736,-0.0714,-0.0707,-0.0511,-0.0509,-0.0509,-0.0628,0,0,0,0,0,0,-0.1277,-0.128,-0.1295,-0.1244,-0.1234,-0.1233,-0.1167,-0.1147,-0.1105,-0.1093,-0.0961,-0.0935,-0.0859,-0.0757,-0.0736,-0.0724,-0.0701,-0.0512,-0.051,-0.0509,-0.0625,-0.0631,-0.0636,0,0,0,0,0,-0.1278,-0.1311,-0.1297,-0.1296,-0.1261,-0.1235,-0.1222,-0.1149,-0.1107,-0.1099,-0.0999,-0.0938,-0.0733,-0.075,-0.0726,-0.0711,-0.0512,-0.0511,-0.0509,-0.0622,-0.063,-0.0636,0,0,0,0,0,0,-0.1308,-0.13,-0.1283,-0.131,-0.1277,-0.1213,-0.12,-0.1154,-0.1073,-0.1049,-0.0935,-0.0904,-0.0824,-0.0749,-0.0772,-0.0644,-0.061,-0.0604,-0.0705,-0.0711,-0.0716,-0.0721,-0.0694,0,0,0,0,0,-0.133,-0.1357,-0.1324,-0.1344,-0.1332,-0.1267,-0.1243,-0.1199,-0.1127,-0.1088,-0.0999,-0.0893,-0.0805,-0.0744,-0.0667,-0.0598,-0.0489,-0.0568,-0.0574,-0.0579,-0.0565,-0.0363,-0.0349,-0.0503,-0.0503,-0.0503,0,0,-0.1342,-0.1346,-0.1356,-0.1352,-0.1318,-0.1325,-0.1245,-0.1219,-0.1213,-0.1073,-0.1024,-0.092,-0.0795,-0.0721,-0.0676,-0.0649,-0.049,-0.0577,-0.0583,-0.0565,-0.036,-0.0344,-0.0331,-0.0502,-0.0502,-0.0502,0,0,-0.1387,-0.139,-0.1422,-0.1414,-0.1384,-0.1356,-0.1353,-0.1291,-0.1246,-0.1193,-0.1085,-0.0962,-0.0855,-0.0741,-0.0675,-0.066,-0.054,-0.0646,-0.0661,-0.0467,-0.0452,-0.0437,-0.0338,-0.0313,-0.0632,-0.0633,-0.0633,0,-0.1394,-0.1447,-0.1421,-0.1451,-0.1455,-0.138,-0.1408,-0.1367,-0.1279,-0.1217,-0.1191,-0.0941,-0.0857,-0.0702,-0.0711,-0.0671,-0.0571,-0.0654,-0.0474,-0.0456,-0.0439,-0.0339,-0.031,-0.0638,-0.0638,-0.0637,-0.0637,0,-0.1464,-0.1502,-0.1519,-0.1549,-0.1549,-0.1559,-0.1518,-0.1487,-0.1423,-0.1333,-0.1172,-0.1022,-0.0854,-0.0817,-0.0771,-0.0605,-0.0582,-0.052,-0.0462,-0.0431,-0.0329,-0.0297,-0.0646,-0.0644,-0.0643,-0.0641,0,0,-0.1472,-0.1555,-0.1557,-0.1596,-0.1604,-0.161,-0.1613,-0.1553,-0.1508,-0.1364,-0.1245,-0.1077,-0.0936,-0.085,-0.0733,-0.057,-0.0412,-0.0514,-0.0501,-0.0427,-0.0037,-0.0026,0.0011,-0.0309,-0.0302,-0.0297,-0.0036,0,-0.1522,-0.1623,-0.1647,-0.1723,-0.1762,-0.1732,-0.1745,-0.1672,-0.1573,-0.1442,-0.1196,-0.1039,-0.0965,-0.0863,-0.0692,-0.0448,-0.0322,-0.0492,-0.0066,-0.0055,-0.0054,0.0052,0.0105,0.0346,-0.0004,0.0001,0.0005,0,-0.1563,-0.1633,-0.1734,-0.1817,-0.1829,-0.1867,-0.1845,-0.1838,-0.164,-0.1539,-0.1296,-0.11,-0.0809,-0.0774,-0.0322,-0.0428,-0.0271,-0.0099,-0.0083,0.0003,0.0021,0.0275,0.0419,0.0558,0.0056,0.0052,0.0049,0,-0.157,-0.1683,-0.1776,-0.1807,-0.1885,-0.1914,-0.1937,-0.1834,-0.1799,-0.1552,-0.1445,-0.1071,-0.085,-0.0543,-0.0201,-0.0242,0.0275,0.0275,0.0421,0.042,0.0591,0.0595,0.0923,0.0542,0.0541,0.054,0.054,0,-0.1606,-0.1671,-0.1792,-0.1838,-0.1925,-0.196,-0.1983,-0.1943,-0.1832,-0.1734,-0.1473,-0.1283,-0.0775,-0.0424,-0.0167,0.0258,0.0321,0.045,0.0526,0.054,0.0536,0.0765,0.0803,0.055,0.0548,0.0546,0.0544,0,-0.1582,-0.1671,-0.1774,-0.1892,-0.1931,-0.1983,-0.2053,-0.2044,-0.1954,-0.1817,-0.1724,-0.1344,-0.0847,-0.0398,0.0151,0.0316,0.0819,0.0787,0.072,0.0783,0.1017,0.1044,0.1456,0.1585,0.1018,0.102,0.1022,0,-0.1585,-0.1638,-0.1795,-0.186,-0.192,-0.2008,-0.2059,-0.207,-0.2057,-0.1849,-0.1764,-0.128,-0.0915,-0.0128,0.0377,0.0893,0.0981,0.11,0.1031,0.1077,0.1167,0.1158,0.1235,0.119,0.1193,0.1195,0.1198,0,-0.1564,-0.1619,-0.1701,-0.1841,-0.1937,-0.204,-0.2118,-0.2138,-0.211,-0.2025,-0.1786,-0.1482,-0.068,0.0026,0.0679,0.0939,0.1223,0.1162,0.1308,0.1416,0.1347,0.1489,0.0883,0.1221,0.1219,0.1217,0.1216,0.1215,-0.1525,-0.1576,-0.1689,-0.1815,-0.1923,-0.2038,-0.2098,-0.2156,-0.2162,-0.2021,-0.1784,-0.1326,-0.0331,0.0675,0.0942,0.1516,0.1457,0.1608,0.1659,0.1659,0.1743,0.1116,0.1471,0.147,0.147,0.1469,0.1468,0,-0.1487,-0.1555,-0.166,-0.1816,-0.191,-0.1992,-0.2106,-0.2139,-0.2136,-0.1969,-0.174,-0.0694,0.0157,0.0963,0.1854,0.2019,0.2043,0.2079,0.2117,0.2193,0.1761,0.1722,0.2031,0.2031,0.2031,0.2031,0.2031,0.2031,-0.1471,-0.1556,-0.1626,-0.1768,-0.1861,-0.1969,-0.2028,-0.2064,-0.1978,-0.1596,-0.1086,-0.0601,0.0606,0.176,0.2421,0.2454,0.2632,0.2569,0.2677,0.2369,0.2328,0.2289,0.2265,0.2684,0.2684,0.3107,0.3111,0.3114]}],[{"header":{"parameterUnit":"m.s-1","parameterCategory":2,"la1":30.2991,"la2":30.254,"lo1":-89.0895,"lo2":-89.0444,"dy":0.0017,"dx":0.0017,"nx":28,"ny":28,"refTime":"2024-06-24T09:00:00:Z","depth":"2","parameterNumber":2,"parameterNumberName":"U-component_of_CURRENTS"},"data":[0,0,0,0,0,0,0,0,0,0,0,0,0,0,0,0,0,0,0,0,0,0,0,0,0,0,0,0,0,0,0,0,0,0,0,0,0,0,0,0,0,0,0,0,0,0,0,0,0,0,0,0,0,0,0,0,0,0,-0.2371,-0.2371,0,-0.2398,-0.2398,-0.2398,-0.2443,-0.2444,-0.2445,-0.2445,-0.2449,-0.2449,-0.2448,0,0,0,0,0,0,0,0,0,0,0,0,0,-0.2319,-0.232,-0.2371,-0.2371,-0.2371,-0.2397,-0.2398,-0.2399,-0.2443,-0.2444,-0.2445,-0.2446,-0.2449,-0.2449,-0.2448,0,0,0,0,0,0,0,0,0,0,0,0,0,-0.2345,-0.232,-0.2371,-0.2396,-0.2398,-0.2397,-0.2398,-0.2399,-0.2443,-0.2444,-0.2445,-0.2446,-0.245,-0.2449,-0.2448,-0.2423,0,0,-0.2446,-0.2445,0,0,0,0,0,0,0,0,-0.2343,-0.2347,-0.2392,-0.2394,-0.2397,-0.2417,-0.2381,-0.2405,-0.2443,-0.2428,-0.2445,-0.2447,-0.2434,-0.2435,-0.244,-0.2423,-0.2423,-0.2445,-0.2445,-0.2445,-0.2444,0,0,0,0,0,0,0,-0.2341,-0.2346,-0.2383,-0.2392,-0.2395,-0.2391,-0.2397,-0.2386,-0.2426,-0.2429,-0.2432,-0.2432,-0.2436,-0.2441,-0.2441,-0.2423,-0.2445,-0.2445,-0.2444,-0.2444,-0.2506,-0.2508,0,0,0,0,0,0,-0.2336,-0.2344,-0.2382,-0.2384,-0.237,-0.2391,-0.2398,-0.2411,-0.2427,-0.243,-0.2431,-0.2434,-0.2442,-0.2442,-0.2441,-0.2504,-0.2445,-0.2444,-0.2443,-0.2504,-0.2506,-0.2508,0,0,0,0,0,0,-0.2335,-0.234,-0.2381,-0.2362,-0.2367,-0.2391,-0.2406,-0.2411,-0.2434,-0.2428,-0.2431,-0.2451,-0.2443,-0.2442,-0.2471,-0.2501,-0.2444,-0.2443,-0.2501,-0.2504,-0.2507,-0.2572,0,0,0,0,0,0,-0.2334,-0.2339,-0.2348,-0.2363,-0.2368,-0.2406,-0.2405,-0.241,-0.243,-0.2435,-0.2445,-0.2446,-0.2443,-0.2473,-0.2471,-0.2499,-0.2442,-0.2498,-0.2503,-0.2506,-0.2567,-0.2576,-0.2585,0,0,0,0,0,-0.2332,-0.2339,-0.2349,-0.2353,-0.238,-0.2407,-0.2411,-0.2431,-0.243,-0.2453,-0.2469,-0.2447,-0.2497,-0.2474,-0.2471,-0.25,-0.2496,-0.2501,-0.2506,-0.2563,-0.2575,-0.2585,0,0,0,0,0,0,-0.2322,-0.2344,-0.2355,-0.237,-0.2398,-0.2415,-0.2423,-0.2436,-0.2464,-0.2467,-0.2465,-0.2468,-0.2511,-0.2496,-0.247,-0.2533,-0.2496,-0.25,-0.254,-0.2551,-0.256,-0.2554,-0.2441,0,0,0,0,0,-0.2322,-0.2344,-0.2362,-0.2384,-0.2386,-0.2406,-0.2417,-0.2437,-0.2458,-0.2471,-0.2486,-0.2501,-0.2524,-0.253,-0.2548,-0.2565,-0.2526,-0.2586,-0.2596,-0.2603,-0.2599,-0.256,-0.2564,-0.2524,-0.2524,-0.2524,0,0,-0.2323,-0.2342,-0.2353,-0.2385,-0.2398,-0.2425,-0.2417,-0.2442,-0.2485,-0.2463,-0.2523,-0.2533,-0.2539,-0.2581,-0.2597,-0.2571,-0.26,-0.2609,-0.2615,-0.2607,-0.2566,-0.2569,-0.2572,-0.2527,-0.2527,-0.2526,0,0,-0.2328,-0.2352,-0.2359,-0.2398,-0.2426,-0.2442,-0.2453,-0.2482,-0.2513,-0.2566,-0.2569,-0.2598,-0.2631,-0.2645,-0.2652,-0.2715,-0.2655,-0.2724,-0.2753,-0.2717,-0.2718,-0.272,-0.2689,-0.2686,-0.2721,-0.2721,-0.2721,0,-0.233,-0.235,-0.2369,-0.2401,-0.2435,-0.2453,-0.2481,-0.2518,-0.2567,-0.259,-0.2601,-0.2657,-0.2664,-0.2699,-0.2735,-0.2734,-0.2698,-0.2708,-0.2725,-0.2725,-0.2725,-0.2693,-0.2689,-0.2724,-0.2724,-0.2724,-0.2723,0,-0.2339,-0.2374,-0.2386,-0.2438,-0.2479,-0.2512,-0.2562,-0.2602,-0.2636,-0.2671,-0.2727,-0.2743,-0.2768,-0.2786,-0.2782,-0.2795,-0.2766,-0.2743,-0.2688,-0.2732,-0.2697,-0.2692,-0.273,-0.2728,-0.2727,-0.2726,0,0,-0.2325,-0.2372,-0.2393,-0.2417,-0.2506,-0.2533,-0.2609,-0.2664,-0.2694,-0.276,-0.2793,-0.2856,-0.285,-0.2858,-0.285,-0.2826,-0.281,-0.2786,-0.2782,-0.274,-0.2723,-0.2594,-0.2576,-0.2776,-0.2776,-0.2775,-0.2702,0,-0.2331,-0.2368,-0.2415,-0.2486,-0.2502,-0.2577,-0.2645,-0.2714,-0.2762,-0.2802,-0.2831,-0.2864,-0.2882,-0.2879,-0.2869,-0.2819,-0.2798,-0.2832,-0.27,-0.2697,-0.2562,-0.2566,-0.2391,-0.2301,-0.2697,-0.2696,-0.2695,0,-0.233,-0.2363,-0.241,-0.2485,-0.2502,-0.2554,-0.2644,-0.2713,-0.2787,-0.2824,-0.2865,-0.2879,-0.2889,-0.2877,-0.2829,-0.2843,-0.2796,-0.2755,-0.275,-0.2598,-0.2557,-0.232,-0.2276,-0.2687,-0.2687,-0.2688,-0.2689,0,-0.2289,-0.2363,-0.2394,-0.2438,-0.2531,-0.2566,-0.2612,-0.2707,-0.2757,-0.2819,-0.2835,-0.2867,-0.2863,-0.282,-0.2772,-0.2789,-0.268,-0.269,-0.2536,-0.2527,-0.2335,-0.2309,-0.2641,-0.2641,-0.2641,-0.2641,-0.2641,0,-0.2282,-0.2323,-0.2367,-0.2402,-0.2449,-0.253,-0.257,-0.2645,-0.2713,-0.2748,-0.2825,-0.2829,-0.2842,-0.2796,-0.2751,-0.2615,-0.2666,-0.253,-0.249,-0.2355,-0.2333,-0.2633,-0.2634,-0.2638,-0.2639,-0.2639,-0.264,0,-0.2245,-0.2292,-0.2319,-0.239,-0.2429,-0.2457,-0.2532,-0.2542,-0.264,-0.2675,-0.2694,-0.2785,-0.2722,-0.2699,-0.2617,-0.2566,-0.2459,-0.2399,-0.2244,-0.2186,-0.2345,-0.2351,-0.2227,-0.2222,-0.2217,-0.2213,-0.221,0,-0.221,-0.2225,-0.2287,-0.2304,-0.2338,-0.2379,-0.2403,-0.2504,-0.2503,-0.2631,-0.2618,-0.263,-0.2584,-0.2435,-0.2326,-0.2191,-0.2307,-0.1974,-0.1978,-0.2324,-0.2299,-0.2311,-0.2322,-0.1767,-0.176,-0.1755,-0.175,0,-0.2156,-0.2182,-0.2206,-0.2222,-0.2246,-0.2254,-0.2273,-0.2276,-0.2384,-0.2394,-0.2394,-0.2384,-0.2293,-0.2084,-0.1956,-0.1871,-0.1982,-0.1858,-0.2229,-0.1894,-0.1882,-0.186,-0.1887,-0.1702,-0.1707,-0.1711,-0.1713,-0.1715,-0.2099,-0.2098,-0.212,-0.2119,-0.2147,-0.2116,-0.2078,-0.206,-0.2053,-0.2039,-0.2122,-0.201,-0.2007,-0.1682,-0.1576,-0.1486,-0.163,-0.1571,-0.1591,-0.1616,-0.1572,-0.1551,-0.1302,-0.1304,-0.1306,-0.1308,-0.131,0,-0.1985,-0.2018,-0.2013,-0.2016,-0.1971,-0.2028,-0.1991,-0.1895,-0.1801,-0.1764,-0.1704,-0.1491,-0.1348,-0.1335,-0.1115,-0.108,-0.1117,-0.1046,-0.1104,-0.1149,-0.1191,-0.113,-0.074,-0.0739,-0.0738,-0.0736,0,0,-0.1953,-0.1914,-0.1904,-0.1831,-0.1846,-0.1773,-0.1728,-0.159,-0.1499,-0.1306,-0.1194,-0.1246,-0.1275,-0.0996,-0.095,-0.0813,-0.0986,-0.077,-0.1222,-0.1336,-0.1377,-0.1477,-0.143,0,0,0,0,0]},{"header":{"parameterUnit":"m.s-1","parameterCategory":2,"la1":30.2991,"la2":30.254,"lo1":-89.0895,"lo2":-89.0444,"dy":0.0017,"dx":0.0017,"nx":28,"ny":28,"refTime":"2024-06-24T09:00:00:Z","depth":"2","parameterNumber":3,"parameterNumberName":"V-component_of_CURRENTS"},"data":[0,0,0,0,0,0,0,0,0,0,0,0,0,0,0,0,0,0,0,0,0,0,0,0,0,0,0,0,0,0,0,0,0,0,0,0,0,0,0,0,0,0,0,0,0,0,0,0,0,0,0,0,0,0,0,0,0,0,0.0157,0.0157,0,0.0245,0.0246,0.0248,0.0328,0.0329,0.0329,0.033,0.0468,0.0471,0.0474,0,0,0,0,0,0,0,0,0,0,0,0,0,0.0119,0.0119,0.0156,0.0157,0.0158,0.0245,0.0247,0.0248,0.0328,0.0329,0.033,0.033,0.0467,0.0471,0.0475,0,0,0,0,0,0,0,0,0,0,0,0,0,0.0166,0.0119,0.0156,0.0207,0.0212,0.0245,0.0247,0.0248,0.0328,0.0329,0.033,0.0331,0.0466,0.0471,0.0475,0.0482,0,0,0.0489,0.0491,0,0,0,0,0,0,0,0,0.0163,0.0168,0.0198,0.0203,0.0209,0.0274,0.0284,0.0328,0.0327,0.0287,0.033,0.0331,0.0406,0.0415,0.0433,0.0488,0.0494,0.0489,0.0492,0.0494,0.0495,0,0,0,0,0,0,0,0.016,0.0165,0.0194,0.0199,0.0206,0.0246,0.0254,0.0293,0.0342,0.029,0.0296,0.0301,0.0409,0.0428,0.0437,0.0496,0.0489,0.0493,0.0496,0.0498,0.057,0.0569,0,0,0,0,0,0,0.0139,0.0161,0.0192,0.0197,0.0185,0.0245,0.0254,0.0254,0.0341,0.0354,0.03,0.0304,0.042,0.0431,0.0442,0.0458,0.0494,0.0498,0.0501,0.0571,0.057,0.0569,0,0,0,0,0,0,0.0138,0.0141,0.0188,0.018,0.0188,0.0244,0.0244,0.0256,0.0274,0.0347,0.0362,0.0306,0.0421,0.0435,0.0476,0.0464,0.05,0.0504,0.0571,0.057,0.0569,0.049,0,0,0,0,0,0,0.0136,0.014,0.0131,0.0178,0.0188,0.0196,0.0243,0.0256,0.0274,0.0281,0.0357,0.0371,0.0423,0.0469,0.048,0.0471,0.0508,0.0572,0.0571,0.0569,0.0493,0.0486,0.0479,0,0,0,0,0,0.0135,0.0117,0.013,0.0134,0.0174,0.0195,0.0204,0.025,0.0273,0.0273,0.0329,0.0369,0.0467,0.0472,0.0486,0.0478,0.0573,0.0571,0.057,0.0496,0.0487,0.048,0,0,0,0,0,0,0.0099,0.0125,0.014,0.0132,0.0155,0.0208,0.0209,0.0239,0.0283,0.0291,0.0364,0.0382,0.041,0.0451,0.0454,0.0492,0.0524,0.0525,0.0464,0.0456,0.0449,0.0437,0.0512,0,0,0,0,0,0.0084,0.0073,0.011,0.01,0.0109,0.0156,0.0169,0.0199,0.0242,0.0263,0.0314,0.0367,0.0412,0.0439,0.0481,0.0504,0.0548,0.0506,0.0499,0.0492,0.0491,0.0545,0.0543,0.0563,0.0563,0.0563,0,0,0.007,0.0077,0.0074,0.009,0.0113,0.0112,0.0167,0.0179,0.0184,0.027,0.029,0.0343,0.0411,0.0439,0.0455,0.0474,0.0508,0.049,0.0485,0.0486,0.0543,0.0541,0.0539,0.0562,0.0562,0.0562,0,0,0.0023,0.0038,0.0014,0.0021,0.0041,0.0074,0.0071,0.0116,0.0144,0.0167,0.0232,0.0281,0.0337,0.0394,0.0428,0.0407,0.0466,0.0411,0.0374,0.0426,0.0425,0.0425,0.047,0.0475,0.0412,0.0412,0.0411,0,0.0004,-0.0026,0.001,-0.0016,-0.0019,0.0049,0.0024,0.0062,0.0114,0.0137,0.0159,0.0261,0.0317,0.0373,0.0367,0.0393,0.0427,0.0401,0.0417,0.0418,0.0419,0.0466,0.0472,0.0408,0.0408,0.0408,0.0409,0,-0.0061,-0.0087,-0.0103,-0.0114,-0.0107,-0.0119,-0.0068,-0.0046,-0.0005,0.004,0.0095,0.018,0.0245,0.0266,0.0313,0.035,0.0372,0.0399,0.0438,0.0413,0.0464,0.0471,0.0402,0.0403,0.0404,0.0405,0,0,-0.0108,-0.0141,-0.0153,-0.0181,-0.0164,-0.0167,-0.0151,-0.0114,-0.0097,-0.0032,-0.0002,0.0084,0.0143,0.0186,0.0258,0.0309,0.0348,0.0349,0.0354,0.0393,0.0456,0.05,0.0514,0.0375,0.0376,0.0377,0.0486,0,-0.0174,-0.0255,-0.0244,-0.0307,-0.0338,-0.0282,-0.0275,-0.0229,-0.0167,-0.0116,-0.0006,0.0048,0.0111,0.0147,0.0207,0.0321,0.0365,0.0316,0.0476,0.0481,0.0523,0.0523,0.048,0.0576,0.0494,0.0495,0.0496,0,-0.0246,-0.0295,-0.0374,-0.041,-0.0416,-0.043,-0.0401,-0.0388,-0.0283,-0.0234,-0.0144,-0.0048,0.0058,0.0104,0.0278,0.0242,0.0332,0.0415,0.0422,0.0498,0.054,0.0591,0.0594,0.051,0.0509,0.0508,0.0507,0,-0.0312,-0.0385,-0.0455,-0.0474,-0.0493,-0.0503,-0.0495,-0.0422,-0.0402,-0.0298,-0.0255,-0.0118,-0.0025,0.0095,0.0284,0.0276,0.0473,0.0486,0.0609,0.0613,0.0628,0.0632,0.0586,0.0586,0.0585,0.0585,0.0585,0,-0.0389,-0.0451,-0.0495,-0.0538,-0.0606,-0.0585,-0.0607,-0.057,-0.0497,-0.0456,-0.0322,-0.0221,-0.0023,0.0133,0.0265,0.0474,0.0462,0.0607,0.0648,0.0598,0.0598,0.0582,0.058,0.0589,0.0588,0.0588,0.0587,0,-0.045,-0.0485,-0.0571,-0.062,-0.0641,-0.0687,-0.0693,-0.0686,-0.0616,-0.055,-0.0516,-0.0289,-0.0068,0.0121,0.0357,0.0471,0.0644,0.0712,0.0641,0.0672,0.0749,0.0741,0.0854,0.0856,0.0858,0.086,0.0862,0,-0.0486,-0.0539,-0.0636,-0.0689,-0.0716,-0.077,-0.079,-0.0754,-0.0734,-0.0561,-0.0523,-0.0282,-0.0044,0.0312,0.0511,0.0736,0.0728,0.0817,0.0797,0.0749,0.0778,0.0767,0.0757,0.078,0.0781,0.0782,0.0782,0,-0.0553,-0.0586,-0.0655,-0.0756,-0.0813,-0.0871,-0.0891,-0.0895,-0.0812,-0.0728,-0.0516,-0.0296,0.0095,0.0403,0.0685,0.0795,0.0774,0.0839,0.082,0.0719,0.0689,0.0714,0.0705,0.0787,0.0787,0.0786,0.0786,0.0786,-0.0592,-0.0655,-0.0734,-0.0821,-0.0889,-0.0939,-0.096,-0.0943,-0.0899,-0.0719,-0.0499,-0.0129,0.0148,0.0612,0.0772,0.0883,0.0887,0.0906,0.09,0.0895,0.0867,0.0843,0.0964,0.0964,0.0965,0.0965,0.0966,0,-0.0629,-0.0698,-0.0786,-0.0889,-0.0946,-0.0972,-0.0999,-0.0964,-0.0893,-0.0644,-0.0398,-0.0,0.035,0.0622,0.083,0.0964,0.0914,0.0957,0.087,0.0864,0.0859,0.0826,0.0914,0.0915,0.0915,0.0915,0,0,-0.066,-0.0744,-0.0785,-0.0898,-0.0964,-0.1008,-0.1013,-0.0939,-0.0758,-0.0478,-0.02,0.0122,0.0475,0.0593,0.073,0.0854,0.082,0.0841,0.0866,0.074,0.0734,0.0812,0.0753,0,0,0,0,0]}],[{"header":{"parameterUnit":"m.s-1","parameterCategory":2,"la1":30.2991,"la2":30.254,"lo1":-89.0895,"lo2":-89.0444,"dy":0.0017,"dx":0.0017,"nx":28,"ny":28,"refTime":"2024-06-24T09:00:00:Z","depth":"4","parameterNumber":2,"parameterNumberName":"U-component_of_CURRENTS"},"data":[0,0,0,0,0,0,0,0,0,0,0,0,0,0,0,0,0,0,0,0,0,0,0,0,0,0,0,0,0,0,0,0,0,0,0,0,0,0,0,0,0,0,0,0,0,0,0,0,0,0,0,0,0,0,0,0,0,0,-0.1575,-0.1576,0,-0.1658,-0.1659,-0.166,-0.17,-0.17,-0.17,-0.17,-0.1777,-0.1779,-0.1781,0,0,0,0,0,0,0,0,0,0,0,0,0,-0.1465,-0.1467,-0.1575,-0.1576,-0.1577,-0.1658,-0.1659,-0.166,-0.17,-0.17,-0.17,-0.17,-0.1777,-0.1779,-0.1782,0,0,0,0,0,0,0,0,0,0,0,0,0,-0.1525,-0.1467,-0.1574,-0.1608,-0.1612,-0.1658,-0.1659,-0.166,-0.17,-0.17,-0.17,-0.17,-0.1776,-0.1779,-0.1782,-0.1797,0,0,-0.1791,-0.1792,0,0,0,0,0,0,0,0,-0.1522,-0.1529,-0.1602,-0.1605,-0.161,-0.167,-0.1649,-0.1706,-0.1699,-0.1664,-0.17,-0.17,-0.1742,-0.1748,-0.1761,-0.18,-0.1804,-0.1791,-0.1793,-0.1794,-0.1795,0,0,0,0,0,0,0,-0.1518,-0.1526,-0.1606,-0.1603,-0.1608,-0.1624,-0.1632,-0.166,-0.17,-0.1667,-0.1671,-0.1683,-0.1744,-0.1758,-0.1763,-0.1805,-0.1791,-0.1794,-0.1795,-0.1797,-0.1942,-0.1944,0,0,0,0,0,0,-0.151,-0.1522,-0.1603,-0.1609,-0.1567,-0.1626,-0.1635,-0.1649,-0.17,-0.1708,-0.1683,-0.1684,-0.1753,-0.1759,-0.1766,-0.1864,-0.1794,-0.1797,-0.1799,-0.194,-0.1942,-0.1944,0,0,0,0,0,0,-0.1507,-0.1516,-0.16,-0.1568,-0.158,-0.1628,-0.1643,-0.1651,-0.1692,-0.1712,-0.172,-0.1718,-0.1753,-0.1762,-0.1824,-0.1864,-0.1798,-0.1801,-0.1937,-0.194,-0.1943,-0.2011,0,0,0,0,0,0,-0.1504,-0.1515,-0.1537,-0.1568,-0.1582,-0.1651,-0.1643,-0.1652,-0.1698,-0.1702,-0.1745,-0.175,-0.1754,-0.182,-0.1827,-0.1867,-0.1803,-0.1935,-0.1939,-0.1942,-0.2006,-0.2016,-0.2025,0,0,0,0,0,-0.15,-0.1525,-0.1538,-0.1549,-0.1606,-0.1653,-0.1662,-0.1694,-0.17,-0.1729,-0.1761,-0.175,-0.1849,-0.1824,-0.1832,-0.1874,-0.1933,-0.1937,-0.1942,-0.2002,-0.2014,-0.2024,0,0,0,0,0,0,-0.1491,-0.1533,-0.1547,-0.1585,-0.1628,-0.166,-0.1693,-0.1711,-0.1759,-0.177,-0.178,-0.179,-0.1856,-0.1859,-0.1831,-0.1928,-0.1888,-0.1895,-0.1931,-0.1943,-0.1952,-0.1934,-0.1806,0,0,0,0,0,-0.1499,-0.1527,-0.1571,-0.1603,-0.1627,-0.1665,-0.1692,-0.1718,-0.1756,-0.1778,-0.181,-0.1844,-0.1878,-0.1906,-0.1934,-0.1992,-0.1966,-0.2024,-0.2033,-0.2041,-0.2033,-0.2034,-0.2042,-0.196,-0.196,-0.196,0,0,-0.1502,-0.153,-0.1547,-0.1604,-0.1637,-0.1685,-0.1683,-0.1736,-0.1782,-0.1779,-0.1858,-0.1879,-0.19,-0.1963,-0.1993,-0.1975,-0.2053,-0.2047,-0.2053,-0.2041,-0.204,-0.2047,-0.2054,-0.1963,-0.1962,-0.1962,0,0,-0.1517,-0.1553,-0.1584,-0.1624,-0.1685,-0.1716,-0.1738,-0.1795,-0.1831,-0.1904,-0.191,-0.1956,-0.202,-0.204,-0.2055,-0.2133,-0.2098,-0.215,-0.219,-0.2192,-0.2198,-0.2203,-0.218,-0.2182,-0.2159,-0.216,-0.216,0,-0.1525,-0.1567,-0.1602,-0.1646,-0.1686,-0.1733,-0.1782,-0.1829,-0.1902,-0.1933,-0.1941,-0.2029,-0.2051,-0.211,-0.214,-0.2153,-0.2137,-0.2145,-0.2201,-0.2206,-0.2209,-0.2185,-0.2187,-0.2163,-0.2163,-0.2163,-0.2162,0,-0.1555,-0.1606,-0.163,-0.1701,-0.1751,-0.1803,-0.1869,-0.1929,-0.1977,-0.2013,-0.2091,-0.2123,-0.2167,-0.2191,-0.2193,-0.2241,-0.2216,-0.2207,-0.2166,-0.2221,-0.2193,-0.2193,-0.2169,-0.2167,-0.2166,-0.2165,0,0,-0.1529,-0.1631,-0.1644,-0.1686,-0.1787,-0.1826,-0.1916,-0.1998,-0.2044,-0.212,-0.2171,-0.2242,-0.2249,-0.2266,-0.2278,-0.2288,-0.2308,-0.2266,-0.2265,-0.2231,-0.2296,-0.2113,-0.2095,-0.2311,-0.2311,-0.2312,-0.2264,0,-0.1548,-0.1626,-0.1681,-0.1771,-0.182,-0.1898,-0.1969,-0.205,-0.2116,-0.218,-0.2222,-0.2274,-0.2282,-0.2303,-0.2321,-0.2311,-0.2313,-0.232,-0.2258,-0.2255,-0.2076,-0.2091,-0.2314,-0.2264,-0.2264,-0.2264,-0.2264,0,-0.156,-0.1613,-0.1694,-0.1802,-0.1831,-0.1895,-0.2008,-0.2073,-0.217,-0.2221,-0.2283,-0.231,-0.2356,-0.2343,-0.2352,-0.2358,-0.2331,-0.2315,-0.2313,-0.2113,-0.2072,-0.22,-0.2264,-0.2264,-0.2264,-0.2264,-0.2264,0,-0.151,-0.1625,-0.1687,-0.1725,-0.1851,-0.1908,-0.1976,-0.2083,-0.2127,-0.2237,-0.2269,-0.2338,-0.2357,-0.2358,-0.2333,-0.235,-0.2307,-0.2324,-0.2132,-0.2119,-0.2268,-0.2263,-0.231,-0.231,-0.231,-0.2311,-0.2311,0,-0.1497,-0.1553,-0.167,-0.1703,-0.1769,-0.1874,-0.1946,-0.2029,-0.2123,-0.2147,-0.2269,-0.228,-0.236,-0.2348,-0.2331,-0.2209,-0.2304,-0.212,-0.2089,-0.2299,-0.2299,-0.2268,-0.2264,-0.2309,-0.2309,-0.231,-0.231,0,-0.1434,-0.1513,-0.1583,-0.171,-0.1745,-0.1788,-0.1902,-0.1938,-0.2056,-0.2088,-0.2118,-0.2232,-0.2219,-0.225,-0.2237,-0.2168,-0.2098,-0.2029,-0.2229,-0.2213,-0.1915,-0.1916,-0.1821,-0.1814,-0.1808,-0.1803,-0.1799,0,-0.1405,-0.1434,-0.1552,-0.1573,-0.1633,-0.1709,-0.1744,-0.1878,-0.1904,-0.202,-0.2006,-0.2055,-0.2102,-0.1938,-0.2007,-0.1945,-0.1923,-0.1878,-0.1919,-0.1883,-0.1864,-0.1873,-0.1881,-0.1789,-0.1788,-0.1786,-0.1785,0,-0.1336,-0.1385,-0.1435,-0.1474,-0.1517,-0.155,-0.1615,-0.1612,-0.1733,-0.1861,-0.183,-0.1825,-0.18,-0.1807,-0.1759,-0.1725,-0.1911,-0.1817,-0.183,-0.1869,-0.1844,-0.1833,-0.1848,-0.1764,-0.1767,-0.1769,-0.177,0,-0.1273,-0.1278,-0.1333,-0.1354,-0.1395,-0.1368,-0.1424,-0.1439,-0.1474,-0.1611,-0.1586,-0.1657,-0.1756,-0.1686,-0.1644,-0.1591,-0.1584,-0.1542,-0.157,-0.1593,-0.1542,-0.1479,-0.124,0,0,0,0,0,-0.1196,-0.1184,-0.1202,-0.1206,-0.124,-0.1252,-0.1321,-0.1381,-0.1491,-0.1407,-0.1492,-0.1462,-0.1428,-0.1481,-0.1379,-0.1545,-0.159,-0.142,-0.1556,-0.1651,-0.1674,-0.1636,0,0,0,0,0,0,-0.1139,-0.1157,-0.1158,-0.1072,-0.1043,-0.1048,-0.1079,-0.1154,-0.1125,-0.1255,-0.1246,-0.1352,-0.1347,-0.145,-0.1344,-0.1353,-0.1401,-0.1474,-0.1469,-0.1637,-0.1659,-0.1678,-0.1646,0,0,0,0,0]},{"header":{"parameterUnit":"m.s-1","parameterCategory":2,"la1":30.2991,"la2":30.254,"lo1":-89.0895,"lo2":-89.0444,"dy":0.0017,"dx":0.0017,"nx":28,"ny":28,"refTime":"2024-06-24T09:00:00:Z","depth":"4","parameterNumber":3,"parameterNumberName":"V-component_of_CURRENTS"},"data":[0,0,0,0,0,0,0,0,0,0,0,0,0,0,0,0,0,0,0,0,0,0,0,0,0,0,0,0,0,0,0,0,0,0,0,0,0,0,0,0,0,0,0,0,0,0,0,0,0,0,0,0,0,0,0,0,0,0,0.0125,0.0126,0,0.019,0.0191,0.0192,0.0243,0.0243,0.0244,0.0244,0.0356,0.0359,0.0361,0,0,0,0,0,0,0,0,0,0,0,0,0,0.01,0.01,0.0125,0.0126,0.0127,0.0189,0.0191,0.0192,0.0243,0.0243,0.0244,0.0244,0.0355,0.0358,0.0362,0,0,0,0,0,0,0,0,0,0,0,0,0,0.0135,0.01,0.0125,0.0158,0.0161,0.0189,0.0191,0.0192,0.0243,0.0243,0.0244,0.0244,0.0354,0.0358,0.0362,0.0378,0,0,0.0374,0.0376,0,0,0,0,0,0,0,0,0.0132,0.0136,0.0152,0.0156,0.0159,0.0207,0.0223,0.0256,0.0243,0.0215,0.0244,0.0245,0.0308,0.0316,0.033,0.0384,0.0388,0.0375,0.0377,0.0379,0.038,0,0,0,0,0,0,0,0.013,0.0134,0.0153,0.0153,0.0157,0.0187,0.0192,0.0229,0.0261,0.0217,0.022,0.0223,0.0311,0.0326,0.0333,0.039,0.0375,0.0378,0.0381,0.0382,0.0467,0.0466,0,0,0,0,0,0,0.0114,0.0131,0.0151,0.0155,0.0144,0.0187,0.0193,0.0193,0.026,0.0269,0.0223,0.0225,0.0319,0.0329,0.0338,0.0365,0.0379,0.0383,0.0385,0.0467,0.0467,0.0466,0,0,0,0,0,0,0.0113,0.0115,0.0149,0.0143,0.0149,0.0186,0.0187,0.0194,0.0211,0.0263,0.0274,0.0231,0.032,0.0332,0.0371,0.0369,0.0385,0.0388,0.0467,0.0467,0.0466,0.0416,0,0,0,0,0,0,0.0112,0.0114,0.0111,0.0141,0.0148,0.0158,0.0186,0.0195,0.021,0.0215,0.0274,0.0285,0.0321,0.0364,0.0375,0.0375,0.0392,0.0467,0.0467,0.0467,0.0418,0.0414,0.0411,0,0,0,0,0,0.0111,0.01,0.011,0.0113,0.0142,0.0157,0.0163,0.0194,0.021,0.0212,0.0256,0.0283,0.0369,0.0368,0.038,0.0381,0.0467,0.0467,0.0467,0.042,0.0415,0.0411,0,0,0,0,0,0,0.0091,0.0105,0.0117,0.0113,0.0129,0.0164,0.0167,0.0189,0.0225,0.0232,0.0286,0.0299,0.033,0.0362,0.0359,0.0403,0.0421,0.0423,0.0381,0.0377,0.0374,0.0356,0.0395,0,0,0,0,0,0.0082,0.0076,0.01,0.0095,0.01,0.0134,0.0144,0.0164,0.0198,0.0214,0.0254,0.0298,0.0337,0.0361,0.0396,0.0425,0.0452,0.0432,0.0428,0.0425,0.0419,0.0457,0.0456,0.0465,0.0465,0.0465,0,0,0.0073,0.0079,0.0077,0.0089,0.0105,0.0104,0.0142,0.0151,0.0157,0.0221,0.0242,0.0286,0.0341,0.0371,0.0388,0.0399,0.0437,0.0425,0.0421,0.0417,0.0457,0.0456,0.0455,0.0465,0.0465,0.0465,0,0,0.0042,0.0056,0.0037,0.0044,0.0058,0.0081,0.008,0.0113,0.0135,0.016,0.0208,0.0253,0.0305,0.0349,0.0378,0.0377,0.0413,0.0383,0.0357,0.0395,0.0394,0.0394,0.0425,0.0428,0.0385,0.0385,0.0385,0,0.0031,0.0007,0.0035,0.0017,0.0014,0.0065,0.0045,0.0077,0.0119,0.0137,0.0156,0.0244,0.0295,0.0343,0.0345,0.0369,0.039,0.037,0.039,0.039,0.0391,0.0423,0.0427,0.0383,0.0383,0.0383,0.0383,0,-0.0016,-0.0035,-0.0046,-0.0054,-0.0047,-0.0057,-0.0017,0.0002,0.0036,0.0072,0.0121,0.0195,0.0246,0.0273,0.0312,0.0345,0.0357,0.0377,0.0398,0.0387,0.0421,0.0426,0.0379,0.038,0.0381,0.0381,0,0,-0.0047,-0.0076,-0.0081,-0.0108,-0.009,-0.0095,-0.0077,-0.0051,-0.0041,0.002,0.0041,0.0127,0.0173,0.0208,0.027,0.0313,0.0346,0.0342,0.0345,0.0368,0.0419,0.0406,0.0411,0.0366,0.0366,0.0367,0.044,0,-0.0096,-0.0158,-0.015,-0.02,-0.0229,-0.0185,-0.0178,-0.0141,-0.0091,-0.0053,0.0042,0.0085,0.0148,0.0176,0.0229,0.032,0.0357,0.0324,0.0431,0.0434,0.042,0.0416,0.0369,0.0444,0.0445,0.0446,0.0447,0,-0.0148,-0.0187,-0.0251,-0.0289,-0.0296,-0.0308,-0.0292,-0.0278,-0.0196,-0.0157,-0.0084,-0.0006,0.0086,0.013,0.0272,0.0245,0.0319,0.0388,0.0393,0.04,0.043,0.046,0.0457,0.0456,0.0455,0.0455,0.0454,0,-0.0197,-0.0258,-0.0318,-0.0333,-0.0355,-0.0369,-0.0368,-0.0311,-0.0299,-0.0218,-0.0193,-0.0074,-0.0005,0.01,0.0259,0.0259,0.0407,0.0427,0.0483,0.0484,0.0496,0.0496,0.0505,0.0504,0.0504,0.0504,0.0504,0,-0.0254,-0.0304,-0.0353,-0.0387,-0.045,-0.0438,-0.0468,-0.0438,-0.0392,-0.0369,-0.0254,-0.0191,-0.0011,0.011,0.0232,0.0377,0.0388,0.0474,0.05,0.0473,0.0469,0.05,0.0499,0.0507,0.0506,0.0506,0.0505,0,-0.0293,-0.0326,-0.0404,-0.0457,-0.0478,-0.0519,-0.0547,-0.0554,-0.0505,-0.0468,-0.0445,-0.0275,-0.011,0.0061,0.0258,0.0344,0.0479,0.0523,0.0477,0.0501,0.0535,0.053,0.0583,0.0583,0.0583,0.0583,0.0583,0,-0.0322,-0.0365,-0.0458,-0.0506,-0.0536,-0.0594,-0.0623,-0.0609,-0.0607,-0.0503,-0.048,-0.0313,-0.0184,0.009,0.0258,0.0466,0.0498,0.055,0.0545,0.0522,0.0543,0.0537,0.0533,0.0583,0.0584,0.0584,0.0584,0,-0.037,-0.04,-0.0461,-0.0556,-0.0616,-0.0679,-0.0716,-0.0725,-0.068,-0.0646,-0.0481,-0.0311,-0.0121,0.0105,0.0262,0.0415,0.0506,0.0552,0.0553,0.0548,0.0523,0.0542,0.0538,0.0584,0.0584,0.0584,0.0584,0,-0.0398,-0.0447,-0.0519,-0.0597,-0.0675,-0.0723,-0.0749,-0.0722,-0.0709,-0.0593,-0.0529,-0.0302,-0.0158,0.0079,0.0229,0.0369,0.0403,0.0437,0.0445,0.0446,0.0384,0.033,0.035,0,0,0,0,0,-0.042,-0.047,-0.0551,-0.0635,-0.0705,-0.0738,-0.0785,-0.0792,-0.0757,-0.0647,-0.0585,-0.0396,-0.0117,0.0021,0.0159,0.02,0.0395,0.0361,0.0429,0.0586,0.0585,0.0534,0,0,0,0,0,0,-0.0437,-0.0512,-0.0552,-0.0637,-0.0686,-0.0754,-0.0779,-0.0761,-0.0693,-0.0624,-0.0467,-0.0372,-0.0103,-0.0183,0.0168,0.021,0.0267,0.0496,0.0498,0.0586,0.0585,0.0585,0.0532,0,0,0,0,0]}]]